IRIDIUM 67 [P]

Last updated on June 20, 2018, 12:20 a.m. UTC

1 25290U 98021F   18170.82047975  .01679296 -15247-5  97407-3 0  9992
2 25290  86.3926  69.4997 0322536 147.4672 214.6935 15.60957101 57816

Satellite is not in orbit.